Weather History for Key West NAF, FL

Change the Weather History Date:

Wednesday, November 6, 2013

  Actual Average Record
Temperature  
Mean Temperature 80 °F -  
Max Temperature 84 °F 79 °F 90 °F (2005)
Min Temperature 77 °F 71 °F 57 °F (1950)
Cooling Degree Days 16    
Growing Degree Days 30 (Base 50)    
Moisture  
Dew Point 71 °F    
Average Humidity 75    
Maximum Humidity 83    
Minimum Humidity 66    
Precipitation  
Precipitation 0.00 in - - ()
Sea Level Pressure  
Sea Level Pressure 29.99 in    
Wind  
Wind Speed 12 mph (ENE)    
Max Wind Speed 18 mph    
Max Gust Speed 26 mph    
Visibility 10 miles    
Events      
Averages and records for this station are not official NWS values.
T = Trace of Precipitation, MM = Missing Value Source: NWS Daily Summary

Daily Weather History Graph

Daily Weather History Graph

Search for Another Location

Airport:

Trip Planner

Search our weather history database for the weather conditions in past years. The results will help you decide how hot, cold, wet, or windy it might be!

Date:

Astronomy

Nov. 06, 2013 Rise Set
Actual Time 6:36 AM EST 5:43 PM EST
Civil Twilight 6:13 AM EST 6:07 PM EST
Nautical Twilight 5:46 AM EST 6:34 PM EST
Astronomical Twilight 5:19 AM EST 7:01 PM EST
Moon 9:42 AM EST (11/6) 8:54 PM EST (11/6)
Length of Visible Light 11h 54m
Length of Day
11h 06m
Waxing Crescent, 13% of the Moon is Illuminated
Nov 6
Waxing Crescent
Nov 10
First Quarter
Nov 17
Full
Nov 25
Last Quarter
Dec 2
New

Hourly Weather History & Observations

Time (EST) Temp. Heat Index Dew Point Humidity Pressure Visibility Wind Dir Wind Speed Gust Speed Precip Events Conditions
12:53 AM - - - N/A% 29.99 in 10.0 mi ENE 10.4 mph - N/A   Mostly Cloudy
1:44 AM - - - N/A% 29.97 in 10.0 mi ENE 10.4 mph 18.4 mph N/A   Overcast
1:53 AM - - - N/A% 29.97 in 10.0 mi ENE 11.5 mph 18.4 mph N/A   Overcast
2:53 AM - - - N/A% 29.96 in 10.0 mi ENE 10.4 mph - N/A   Overcast
3:53 AM - - - N/A% 29.96 in 10.0 mi ENE 10.4 mph 17.3 mph N/A   Overcast
4:53 AM - - - N/A% 29.97 in 9.0 mi ENE 10.4 mph - N/A   Overcast
5:53 AM - - - N/A% 29.98 in 10.0 mi ENE 10.4 mph - N/A   Scattered Clouds
6:02 AM 77.0 °F - 71.6 °F 83% 29.99 in 10.0 mi ENE 11.5 mph 17.3 mph N/A   Mostly Cloudy
6:53 AM 77.0 °F - 71.6 °F 83% 29.99 in 10.0 mi ENE 11.5 mph 17.3 mph N/A   Mostly Cloudy
7:53 AM 78.8 °F - 71.6 °F 78% 30.00 in 10.0 mi ENE 9.2 mph - N/A   Mostly Cloudy
8:53 AM 78.8 °F - 71.6 °F 78% 30.01 in 10.0 mi ENE 12.7 mph 21.9 mph N/A   Mostly Cloudy
9:53 AM 80.6 °F 84.6 °F 71.6 °F 74% 30.01 in 10.0 mi ENE 15.0 mph 25.3 mph N/A   Mostly Cloudy
10:53 AM 80.6 °F 84.6 °F 71.6 °F 74% 30.01 in 10.0 mi East 16.1 mph 23.0 mph N/A   Mostly Cloudy
11:53 AM 82.4 °F 87.2 °F 71.6 °F 70% 30.01 in 10.0 mi East 13.8 mph 23.0 mph N/A   Mostly Cloudy
12:53 PM 82.4 °F 87.2 °F 71.6 °F 70% 29.99 in 10.0 mi East 17.3 mph - N/A   Mostly Cloudy
1:53 PM 82.4 °F 87.2 °F 71.6 °F 70% 29.96 in 10.0 mi East 15.0 mph - N/A   Mostly Cloudy
2:53 PM 84.2 °F 89.6 °F 71.6 °F 66% 29.95 in 10.0 mi East 17.3 mph - N/A   Mostly Cloudy
3:53 PM 82.0 °F 86.7 °F 72.0 °F 71% 29.95 in 10.0 mi ENE 16.1 mph 23.0 mph N/A   Mostly Cloudy
4:53 PM 80.4 °F 84.1 °F 71.2 °F 73% 29.95 in 10.0 mi ENE 18.4 mph 26.5 mph N/A   Mostly Cloudy
5:53 PM 79.2 °F - 70.0 °F 73% 29.96 in 10.0 mi ENE 15.0 mph - N/A   Mostly Cloudy
6:53 PM 79.2 °F - 70.9 °F 76% 29.98 in 10.0 mi ENE 13.8 mph - N/A   Mostly Cloudy
7:53 PM 79.2 °F - 70.9 °F 76% 30.00 in 10.0 mi ENE 15.0 mph - N/A   Mostly Cloudy
8:53 PM 78.8 °F - 70.7 °F 76% 30.02 in 10.0 mi ENE 10.4 mph 18.4 mph N/A   Mostly Cloudy
9:53 PM 78.8 °F - 70.7 °F 76% 30.02 in 10.0 mi ENE 9.2 mph - N/A   Mostly Cloudy
10:53 PM - - - N/A% 30.02 in 10.0 mi ENE 11.5 mph - N/A   Clear
11:53 PM - - - N/A% 30.01 in 10.0 mi East 11.5 mph - N/A   Clear